, AK

(GMT )
Golovin

Weather History for PAGL - March, 2013

Change the Weather History Date:

Tuesday, March 5, 2013

  Actual Average Record
Temperature  
Mean Temperature 32 °F -  
Max Temperature 33 °F - - ()
Min Temperature 30 °F - - ()
Degree Days  
Heating Degree Days 34    
Moisture  
Dew Point 29 °F    
Average Humidity 86    
Maximum Humidity 93    
Minimum Humidity 75    
Precipitation  
Precipitation 0.00 in - - ()
Sea Level Pressure  
Sea Level Pressure 29.80 in    
Wind  
Wind Speed 23 mph (SE)    
Max Wind Speed 25 mph    
Max Gust Speed 32 mph    
Visibility 8 miles    
Events      
T = Trace of Precipitation, MM = Missing Value Source: NWS Daily Summary

Daily Weather History Graph

Daily Weather History Graph

Search for Another Location

Airport or City:

Trip Planner

Search our weather history database for the weather conditions in past years. The results will help you decide how hot, cold, wet, or windy it might be!

Date:

Astronomy

Mar. 05, 2013 Rise Set
Actual Time 8:44 AM AKST 7:23 PM AKST
Civil Twilight 7:56 AM AKST 8:12 PM AKST
Nautical Twilight 7:00 AM AKST 9:08 PM AKST
Astronomical Twilight 6:01 AM AKST 10:08 PM AKST
Moon 6:01 AM AKST (3/5) 11:23 AM AKST (3/5)
Length of Visible Light 12h 15m
Length of Day
10h 38m
Last Quarter, 39% of the Moon is Illuminated
Mar 5
Last Quarter
Mar 11
New
Mar 19
First Quarter
Mar 27
Full
Apr 2
Last Quarter

Hourly Weather History & Observations

Time (AKST) Temp. Windchill Dew Point Humidity Pressure Visibility Wind Dir Wind Speed Gust Speed Precip Events Conditions
12:16 AM 30.2 °F 16.8 °F 26.6 °F 86% 29.93 in 10.0 mi SE 23.0 mph 28.8 mph N/A   Overcast
12:36 AM 32.0 °F 18.9 °F 26.6 °F 80% 29.93 in 10.0 mi SE 24.2 mph 29.9 mph N/A   Overcast
12:56 AM 32.0 °F 19.2 °F 26.6 °F 80% 29.93 in 10.0 mi SE 23.0 mph - N/A   Overcast
1:16 AM 32.0 °F 18.6 °F 26.6 °F 80% 29.92 in 10.0 mi SE 25.3 mph 28.8 mph N/A   Overcast
1:36 AM 32.0 °F 19.8 °F 26.6 °F 80% 29.92 in 10.0 mi SE 20.7 mph - N/A   Overcast
1:56 AM 33.8 °F 21.3 °F 26.6 °F 75% 29.92 in 10.0 mi SE 24.2 mph 28.8 mph N/A   Overcast
2:16 AM 32.0 °F 18.6 °F 26.6 °F 80% 29.92 in 10.0 mi SE 25.3 mph 28.8 mph N/A   Overcast
2:36 AM 33.8 °F 21.3 °F 28.4 °F 81% 29.92 in 10.0 mi SE 24.2 mph - N/A   Overcast
2:56 AM 33.8 °F 21.6 °F 26.6 °F 75% 29.91 in 10.0 mi SE 23.0 mph - N/A   Mostly Cloudy
3:16 AM 33.8 °F 21.9 °F 28.4 °F 81% 29.91 in 10.0 mi SE 21.9 mph - N/A   Overcast
3:36 AM 33.8 °F 22.2 °F 28.4 °F 81% 29.90 in 10.0 mi SE 20.7 mph - N/A   Overcast
4:16 AM 33.8 °F 21.9 °F 28.4 °F 81% 29.89 in 10.0 mi SE 21.9 mph - N/A   Overcast
4:36 AM 33.8 °F 21.9 °F 28.4 °F 81% 29.88 in 10.0 mi SE 21.9 mph 27.6 mph N/A   Mostly Cloudy
4:56 AM 33.8 °F 21.6 °F 28.4 °F 81% 29.88 in 9.0 mi SE 23.0 mph 29.9 mph N/A   Overcast
5:16 AM 32.0 °F 18.9 °F 28.4 °F 87% 29.88 in 5.0 mi SE 24.2 mph 27.6 mph N/A   Overcast
5:36 AM 32.0 °F 18.9 °F 28.4 °F 87% 29.87 in 8.0 mi SE 24.2 mph - N/A   Overcast
5:56 AM 32.0 °F 19.2 °F 28.4 °F 87% 29.87 in 6.0 mi SE 23.0 mph - N/A   Mostly Cloudy
6:16 AM 32.0 °F 18.6 °F 30.2 °F 93% 29.86 in 10.0 mi SE 25.3 mph 29.9 mph N/A   Mostly Cloudy
6:36 AM 32.0 °F 18.9 °F 30.2 °F 93% 29.86 in 6.0 mi SE 24.2 mph 31.1 mph N/A   Mostly Cloudy
6:56 AM 32.0 °F 18.6 °F 28.4 °F 87% 29.85 in 10.0 mi SE 25.3 mph 31.1 mph N/A   Mostly Cloudy
7:16 AM 32.0 °F 18.9 °F 30.2 °F 93% 29.85 in 10.0 mi SE 24.2 mph 29.9 mph N/A   Overcast
7:36 AM 32.0 °F 19.2 °F 30.2 °F 93% 29.85 in 10.0 mi SE 23.0 mph 29.9 mph N/A   Overcast
7:56 AM 32.0 °F 19.5 °F 30.2 °F 93% 29.85 in 3.0 mi SE 21.9 mph 27.6 mph N/A   Overcast
8:16 AM 32.0 °F 18.9 °F 30.2 °F 93% 29.83 in 8.0 mi ESE 24.2 mph 27.6 mph N/A   Overcast
8:36 AM 32.0 °F 18.9 °F 28.4 °F 87% 29.83 in 10.0 mi ESE 24.2 mph 32.2 mph N/A   Overcast
8:56 AM 30.2 °F 16.5 °F 28.4 °F 93% 29.83 in 10.0 mi ESE 24.2 mph - N/A   Mostly Cloudy
9:16 AM 32.0 °F 19.2 °F 28.4 °F 87% 29.83 in 10.0 mi ESE 23.0 mph - N/A   Overcast
9:36 AM 32.0 °F 19.5 °F 28.4 °F 87% 29.82 in 10.0 mi SE 21.9 mph 26.5 mph N/A   Overcast
9:56 AM 32.0 °F 18.9 °F 28.4 °F 87% 29.82 in 10.0 mi ESE 24.2 mph - N/A   Overcast
10:16 AM 33.8 °F 21.6 °F 30.2 °F 87% 29.82 in 3.0 mi SE 23.0 mph 27.6 mph N/A   Overcast
10:36 AM 33.8 °F 21.0 °F 30.2 °F 87% 29.82 in 2.0 mi SE 25.3 mph 29.9 mph N/A   Overcast
10:56 AM 32.0 °F 18.9 °F 30.2 °F 93% 29.82 in 2.0 mi SE 24.2 mph 31.1 mph N/A   Overcast
11:16 AM 33.8 °F 21.6 °F 30.2 °F 87% 29.82 in 3.0 mi SE 23.0 mph 31.1 mph N/A   Overcast
11:36 AM 33.8 °F 21.6 °F 30.2 °F 87% 29.81 in 10.0 mi SE 23.0 mph 31.1 mph N/A   Overcast
11:56 AM 33.8 °F 21.6 °F 30.2 °F 87% 29.81 in 10.0 mi SE 23.0 mph 27.6 mph N/A   Overcast
12:16 PM 33.8 °F 21.3 °F 30.2 °F 87% 29.81 in 10.0 mi SE 24.2 mph - N/A   Overcast
12:36 PM 33.8 °F 22.2 °F 30.2 °F 87% 29.81 in 9.0 mi SE 20.7 mph 29.9 mph N/A   Overcast
12:56 PM 33.8 °F 21.9 °F 30.2 °F 87% 29.80 in 4.0 mi SE 21.9 mph 31.1 mph N/A   Overcast
1:16 PM 33.8 °F 21.0 °F 30.2 °F 87% 29.80 in 10.0 mi SE 25.3 mph 31.1 mph N/A   Overcast
1:36 PM 33.8 °F 21.3 °F 30.2 °F 87% 29.79 in 10.0 mi SE 24.2 mph 28.8 mph N/A   Overcast
1:56 PM 33.8 °F 21.6 °F 30.2 °F 87% 29.79 in 10.0 mi SE 23.0 mph 29.9 mph N/A   Overcast
2:16 PM 33.8 °F 21.3 °F 30.2 °F 87% 29.78 in 8.0 mi SE 24.2 mph - N/A   Overcast
2:36 PM 33.8 °F 21.9 °F 30.2 °F 87% 29.78 in 8.0 mi SE 21.9 mph - N/A   Overcast
2:56 PM 33.8 °F 21.6 °F 30.2 °F 87% 29.77 in 7.0 mi SE 23.0 mph 26.5 mph N/A   Overcast
3:16 PM 33.8 °F 22.2 °F 30.2 °F 87% 29.77 in 3.0 mi SE 20.7 mph 26.5 mph N/A   Mostly Cloudy
3:36 PM 33.8 °F 22.2 °F 30.2 °F 87% 29.76 in 8.0 mi SE 20.7 mph - N/A   Overcast
3:56 PM 33.8 °F 22.5 °F 30.2 °F 87% 29.75 in 10.0 mi SE 19.6 mph - N/A   Overcast
4:16 PM 33.8 °F 22.2 °F 30.2 °F 87% 29.75 in 10.0 mi SE 20.7 mph - N/A   Overcast
4:36 PM 33.8 °F 21.9 °F 30.2 °F 87% 29.74 in 10.0 mi SE 21.9 mph - N/A   Overcast
4:56 PM 33.8 °F 22.5 °F 30.2 °F 87% 29.74 in 10.0 mi SE 19.6 mph - N/A   Overcast
5:16 PM 33.8 °F 22.5 °F 30.2 °F 87% 29.73 in 10.0 mi ESE 19.6 mph - N/A   Overcast
5:36 PM 33.8 °F 21.9 °F 30.2 °F 87% 29.73 in 10.0 mi ESE 21.9 mph - N/A   Overcast
5:56 PM 33.8 °F 21.3 °F 30.2 °F 87% 29.72 in 10.0 mi ESE 24.2 mph - N/A   Overcast
6:16 PM 33.8 °F 21.3 °F 28.4 °F 81% 29.72 in 10.0 mi ESE 24.2 mph - N/A   Overcast
6:36 PM 33.8 °F 21.3 °F 28.4 °F 81% 29.71 in 10.0 mi ESE 24.2 mph - N/A   Mostly Cloudy
6:56 PM 33.8 °F 21.6 °F 28.4 °F 81% 29.71 in 8.0 mi ESE 23.0 mph - N/A   Mostly Cloudy
7:16 PM 33.8 °F 21.9 °F 28.4 °F 81% 29.71 in 10.0 mi ESE 21.9 mph - N/A   Overcast
7:36 PM 33.8 °F 21.9 °F 28.4 °F 81% 29.71 in 10.0 mi ESE 21.9 mph - N/A   Overcast
7:56 PM 33.8 °F 21.9 °F 30.2 °F 87% 29.70 in 10.0 mi ESE 21.9 mph - N/A   Overcast
8:16 PM 32.0 °F 19.5 °F 28.4 °F 87% 29.70 in 10.0 mi ESE 21.9 mph 27.6 mph N/A   Overcast
8:36 PM 32.0 °F 19.8 °F 30.2 °F 93% 29.69 in 10.0 mi ESE 20.7 mph - N/A   Overcast
8:56 PM 32.0 °F 19.8 °F 30.2 °F 93% 29.69 in 10.0 mi SE 20.7 mph 25.3 mph N/A   Overcast
9:16 PM 33.8 °F 21.6 °F 30.2 °F 87% 29.69 in 5.0 mi SE 23.0 mph 28.8 mph N/A   Overcast
9:36 PM 33.8 °F 21.6 °F 30.2 °F 87% 29.68 in 8.0 mi SE 23.0 mph 28.8 mph N/A   Overcast
9:56 PM 33.8 °F 21.3 °F 30.2 °F 87% 29.68 in 4.0 mi SE 24.2 mph - N/A   Overcast
10:16 PM 33.8 °F 21.3 °F 30.2 °F 87% 29.67 in 3.0 mi SE 24.2 mph 28.8 mph N/A   Overcast
10:36 PM 33.8 °F 21.0 °F 30.2 °F 87% 29.67 in 5.0 mi SE 25.3 mph - N/A   Overcast
10:56 PM 32.0 °F 19.5 °F 30.2 °F 93% 29.67 in 7.0 mi ESE 21.9 mph 25.3 mph N/A   Overcast
11:16 PM 33.8 °F 21.6 °F 30.2 °F 87% 29.67 in 4.0 mi SE 23.0 mph 29.9 mph N/A   Overcast
11:36 PM 33.8 °F 21.6 °F 30.2 °F 87% 29.67 in 4.0 mi SE 23.0 mph 28.8 mph N/A   Overcast
11:56 PM 32.0 °F 19.8 °F 30.2 °F 93% 29.67 in 2.5 mi SE 20.7 mph - N/A   Overcast